Location: Bothwell
(41.7170°N, 112.2589°W)
Time: 04:25:59
(UTC+00:00)

Envisat - Visible Passes

Search period start: 15 April 2026 00:00
Search period end: 25 April 2026 00:00
Orbit: 761 x 762 km, 98.4° (Epoch: 14 April)

Date Brightness Start Highest point End Pass type
(mag) Time Alt. Az. Time Alt. Az. Time Alt. Az.
15 Apr 3.6 09:43:51 10° NNE 09:48:45 48° E 09:48:47 48° E visible
15 Apr 4.4 11:23:35 10° NNW 11:27:19 21° WNW 11:28:54 18° W visible
16 Apr 4.9 09:06:52 10° NE 09:10:37 21° E 09:10:37 21° E visible
16 Apr 3.4 10:45:01 10° N 10:49:49 45° WNW 10:50:45 40° W visible
17 Apr 2.9 10:07:01 10° NNE 10:12:07 81° ESE 10:12:35 72° SSE visible
17 Apr 4.9 11:47:59 10° NNW 11:50:20 13° WNW 11:52:42 10° W visible
18 Apr 4.1 09:29:33 10° NNE 09:34:11 35° E 09:34:26 35° ESE visible
18 Apr 4.1 11:08:43 10° N 11:12:58 28° WNW 11:14:34 23° W visible
19 Apr 5.3 08:53:04 10° NE 08:56:04 16° E 08:56:16 16° E visible
19 Apr 3.0 10:30:23 10° N 10:35:24 61° WNW 10:36:24 50° WSW visible
20 Apr 3.3 09:52:35 10° NNE 09:57:36 59° E 09:58:14 54° SE visible
20 Apr 4.6 11:32:43 10° NNW 11:36:02 18° WNW 11:38:23 13° W visible
21 Apr 4.6 09:15:23 10° NE 09:19:36 26° E 09:20:05 26° ESE visible
21 Apr 3.7 10:53:57 10° N 10:58:35 37° WNW 11:00:12 29° WSW visible
22 Apr 5.6 08:40:01 10° ENE 08:41:23 11° E 08:41:55 11° E visible
22 Apr 2.9 10:15:50 10° NNE 10:20:55 83° WNW 10:22:02 56° SSW visible
22 Apr 5.0 11:57:39 10° NW 11:59:01 11° WNW 12:00:22 10° WNW visible
23 Apr 3.8 09:38:14 10° NNE 09:43:04 43° E 09:43:52 40° ESE visible
23 Apr 4.3 11:17:44 10° NNW 11:21:42 24° WNW 11:24:00 17° W visible
24 Apr 5.0 09:01:24 10° NE 09:04:58 19° E 09:05:42 19° ESE visible
24 Apr 3.3 10:39:17 10° N 10:44:10 50° WNW 10:45:50 36° WSW visible
